Weather Roundup
Issued by NWS Chicago, IL

Home | Current Version | Previous Version | Graphics & Text | Print | Product List | Glossary On
Versions: 1 2 3 4 5 6 7 8 9 10 11 12 13 14 15 16 17 18 19 20 21 22 23 24 25 26 27 28 29 30 31 32 33 34 35 36 37 38 39 40 41 42 43 44 45 46 47 48 49 50
368
NZUS59 KLOT 251112
HRRLOT

CHICAGO AREA WEATHER ROUNDUP
NATIONAL WEATHER SERVICE CHICAGO/ROMEOVILLE IL
500 AM CST SAT FEB 25 2017

NOTE: "FAIR" INDICATES FEW OR NO CLOUDS BELOW 12,000 FEET WITH NO
SIGNIFICANT WEATHER AND/OR OBSTRUCTIONS TO VISIBILITY.

* THESE STATIONS ARE NOT UNDER NWS QUALITY CONTROL. THEY ALSO MAY NOT
  REPORT WEATHER SUCH AS PRECIPITATION OR FOG.

ILZ005-006-012>014-019>023-251200-
NORTHEAST ILLINOIS

CITY           SKY/WX    TMP DP  RH WIND       PRES   REMARKS
OHARE          CLOUDY    27  19  72 NW13      29.67R WCI  16
MIDWAY         FLURRIES  28  19  69 NW18      29.67R WCI  15
AURORA         CLOUDY    25  18  74 W21       29.71R WCI  11
LANSING*       CLOUDY    30  25  81 W18G25    29.66R WCI  18
JOLIET*        CLOUDY    28  23  81 NW16G25   29.71R WCI  16
WAUKEGAN       MOCLDY    23  17  78 W10G21    29.65R WCI  12
DUPAGE AIRPORT CLOUDY    24  16  71 NW16G24   29.68R WCI  11
WHEELING       CLOUDY    24  16  71 NW16      29.68R WCI  11
KANKAKEE*      FLURRIES  30  24  77 W18G28    29.71R WCI  18
MORRIS*        CLOUDY    26  19  77 NW25      29.71R WCI  10
LEWIS AIRPORT* FLURRIES  26  24  89 NW18G29   29.70R WCI  13
NORTHERLY ISL    N/A     28  20  71 W13         N/A  WCI  18
$$

WIZ051-052-058>065-066-070>072-251200-
SOUTHEAST WISCONSIN

CITY           SKY/WX    TMP DP  RH WIND       PRES   REMARKS
MILWAUKEE      LGT SNOW  23  17  78 W15       29.63R WCI  10
KENOSHA*       CLOUDY    23  16  74 NW12G22   29.65R WCI  12
RACINE*        LGT SNOW  23  17  78 W8        29.65R WCI  14
WAUKESHA       CLOUDY    19  16  86 W18       29.64R WCI   4
WEST BEND      LGT SNOW  21  19  93 NW5       29.61R WCI  15
$$

INZ001>003-010>013-019-020-251200-
NORTHWEST INDIANA

CITY           SKY/WX    TMP DP  RH WIND       PRES   REMARKS
GARY*          MOCLDY    32  23  69 W14       29.66R WCI  22
MICHIGAN CITY* NOT AVBL
RENSSELAER*    NOT AVBL
VALPARAISO     CLOUDY    32  24  72 W20       29.65R WCI  20
$$

LMZ740>746-251200-
SOUTHERN LAKE MICHIGAN

STATION/POSITION TIME  SKY/WX   TEMP WIND        PRES    VSBY
                                AIR  DIR/SP/G
                 (UTC)          (F)  (DEG/KT/KT) (MB)    (MI)
HARRISON CRIB    1040            29  290/ 16/ 18   N/A
BURNHAM HARBOR   1100            28  280/ 17/ 20   N/A
CALUMET HARBOR   1048            29  280/ 10/ 17 1003.9R
BURNS HARBOR     1040            32  280/ 17/ 22 1004.1R
MICHIGAN CITY    1040            31  250/ 23/ 25   N/A
$$

ABBREVIATIONS USED IN REMARKS
   TC - TEMPERATURE IN CELSIUS
  WCI - WIND CHILL INDEX
   HX - HEAT INDEX
  VSB - VISIBILITY
$$




USA.gov is the U.S. government's official web portal to all federal, state and local government web resources and services.